Weather History for KGCC - July, 2013

Change the Weather History Date:

Tuesday, July 23, 2013

  Actual Average Record
Temperature  
Mean Temperature 72 °F 72 °F  
Max Temperature 88 °F 88 °F 103 °F (1931)
Min Temperature 56 °F 57 °F 44 °F (1972)
Degree Days  
Heating Degree Days 0 0  
Month to date heating degree days 0 14  
Since 1 June heating degree days 117 156  
Since 1 July heating degree days 0 14  
Cooling Degree Days 7 8  
Month to date cooling degree days 192 152  
Year to date cooling degree days 246 220  
Since 1 June cooling degree days 238 212  
Growing Degree Days 22 (Base 50)    
Moisture  
Dew Point 48 °F    
Average Humidity 51    
Maximum Humidity 80    
Minimum Humidity 21    
Precipitation  
Precipitation 0.00 in 0.05 in 1.23 in (2004)
Month to date precipitation 2.22 1.26  
Year to date precipitation 11.77 9.13  
Sea Level Pressure  
Sea Level Pressure 29.94 in    
Wind  
Wind Speed 7 mph (ENE)    
Max Wind Speed 20 mph    
Max Gust Speed 25 mph    
Visibility 10 miles    
Events      
T = Trace of Precipitation, MM = Missing Value Source: NWS Daily Summary

Daily Weather History Graph

Daily Weather History Graph

Search for Another Location

Airport or City:

Trip Planner

Search our weather history database for the weather conditions in past years. The results will help you decide how hot, cold, wet, or windy it might be!

Date:

Astronomy

Jul. 23, 2013 Rise Set
Actual Time 5:40 AM MDT 8:36 PM MDT
Civil Twilight 5:05 AM MDT 9:10 PM MDT
Nautical Twilight 4:21 AM MDT 9:54 PM MDT
Astronomical Twilight 3:30 AM MDT 10:45 PM MDT
Moon 8:59 PM MDT (7/23) 6:56 AM MDT (7/23)
Length of Visible Light 16h 05m
Length of Day
14h 56m
Full, 99% of the Moon is Illuminated
Jul 23
Full
Jul 29
Last Quarter
Aug 6
New
Aug 14
First Quarter
Aug 20
Full

Hourly Weather History & Observations

Time (MDT) Temp. Dew Point Humidity Pressure Visibility Wind Dir Wind Speed Gust Speed Precip Events Conditions
12:53 AM 69.1 °F 50.0 °F 51% 29.83 in 10.0 mi SSE 12.7 mph - N/A   Clear
1:53 AM 69.1 °F 52.0 °F 54% 29.82 in 10.0 mi South 17.3 mph 24.2 mph N/A   Clear
2:53 AM 68.0 °F 52.0 °F 56% 29.87 in 10.0 mi Calm Calm - N/A   Clear
3:53 AM 57.9 °F 52.0 °F 81% 29.89 in 10.0 mi SSW 3.5 mph - N/A   Clear
4:53 AM 57.9 °F 52.0 °F 81% 29.89 in 10.0 mi South 6.9 mph - N/A   Clear
5:53 AM 60.1 °F 52.0 °F 75% 29.89 in 10.0 mi Calm Calm - N/A   Clear
6:53 AM 64.0 °F 55.0 °F 73% 29.90 in 10.0 mi South 10.4 mph - N/A   Clear
7:53 AM 69.1 °F 55.9 °F 63% 29.92 in 10.0 mi South 8.1 mph - N/A   Clear
8:53 AM 73.0 °F 51.1 °F 46% 29.94 in 10.0 mi NW 5.8 mph - N/A   Clear
9:53 AM 75.9 °F 51.1 °F 42% 29.95 in 10.0 mi North 12.7 mph - N/A   Clear
10:53 AM 79.0 °F 48.9 °F 35% 29.97 in 10.0 mi North 13.8 mph - N/A   Clear
11:53 AM 81.0 °F 48.9 °F 33% 29.95 in 10.0 mi NNE 11.5 mph 19.6 mph N/A   Clear
12:53 PM 82.9 °F 46.0 °F 27% 29.95 in 10.0 mi NE 11.5 mph 16.1 mph N/A   Clear
1:53 PM 84.9 °F 44.1 °F 24% 29.94 in 10.0 mi North 8.1 mph 18.4 mph N/A   Clear
2:53 PM 87.1 °F 43.0 °F 21% 29.94 in 10.0 mi NNE 13.8 mph 18.4 mph N/A   Partly Cloudy
3:53 PM 87.1 °F 42.1 °F 21% 29.95 in 10.0 mi NE 10.4 mph 18.4 mph N/A   Clear
4:53 PM 88.0 °F 42.1 °F 20% 29.94 in 10.0 mi NNE 6.9 mph - N/A   Mostly Cloudy
5:53 PM 86.0 °F 43.0 °F 22% 29.94 in 10.0 mi NE 9.2 mph - N/A   Partly Cloudy
6:53 PM 82.9 °F 43.0 °F 24% 29.95 in 10.0 mi East 9.2 mph - N/A   Partly Cloudy
7:53 PM 79.0 °F 44.1 °F 29% 29.95 in 10.0 mi East 10.4 mph - N/A   Clear
8:53 PM 72.0 °F 46.0 °F 40% 29.99 in 10.0 mi ENE 5.8 mph - N/A   Clear
9:53 PM 64.9 °F 46.9 °F 52% 30.01 in 10.0 mi Calm Calm - N/A   Clear
10:53 PM 61.0 °F 46.9 °F 60% 30.03 in 10.0 mi Calm Calm - N/A   Clear
11:53 PM 60.1 °F 48.0 °F 64% 30.04 in 10.0 mi SW 3.5 mph - N/A   Clear